Location: L�tisburg
(47.3947°N, 9.0820°E)
Time: 02:56:45
(UTC+00:00)

USA 308 - Pass Details

Date: 03 March 2021
Orbit: 571 x 574 km, 54.0° (Epoch: 10 April)

Event Time Altitude Azimuth Distance (km) Brightness Sun altitude
Rises 18:26:55 0° 280° (W) 2,780 8.4 -13.5°
Reaches altitude 10° 18:29:21 10° 290° (WNW) 1,881 6.8 -13.9°
Maximum altitude 18:33:15 34° 356° (N) 963 4.1 -14.6°
Enters shadow 18:35:59 17° 53° (NE) 1,481 4.6 -15.0°
